Date String (YYYY-MM-DD hh:mm:ss) UTC,Instrument flags,Ambient pressure (hPa),Sample flow (lpm),Bypass flow (lpm),Sample temperature (°C),Ambient temperature (°C),ASC tube jacket temperature (°C),LED temperature (°C),Box temperature (°C),Sample RH (%),Span deviation,Mass concentration (μg/m³),Mass concentration (μg/m³),Mass concentration (μg/m³)
DateTimeUTC,F1_M11,P_M11,Q1_M11,Q2_M11,T1_M11,T2_M11,T3_M11,T4_M11,T5_M11,U1_M11,ZSPAN_M11,X0_M11,X2_M11,X1_M11
2022-01-26 04:00:00,,0830.6,5.00,0.00,21.9,21.6,00.0,30.9,23.5,08.3,0000.0,0003.65,0003.14,0002.98
2022-01-26 04:01:00,,0830.6,5.00,0.00,21.8,21.4,00.0,30.9,23.4,08.4,0000.0,0003.63,0003.14,0002.98
2022-01-26 04:02:00,,0830.6,4.99,0.00,21.8,21.3,00.0,30.8,23.4,08.4,0000.0,0003.60,0003.14,0002.97
2022-01-26 04:03:00,,0830.6,5.00,0.00,21.7,21.1,00.0,30.8,23.3,08.4,0000.0,0003.69,0003.16,0002.99
2022-01-26 04:04:00,,0830.6,5.00,0.00,21.7,21.0,00.0,30.8,23.2,08.4,0000.0,0003.64,0003.15,0003.00
2022-01-26 04:05:00,,0830.6,5.01,0.00,21.6,20.9,00.0,30.8,23.2,08.4,0000.0,0003.69,0003.16,0002.99
2022-01-26 04:06:00,,0830.6,5.00,0.00,21.6,20.8,00.0,30.8,23.1,08.5,0000.0,0003.68,0003.16,0003.00
2022-01-26 04:07:00,,0830.6,5.00,0.00,21.6,21.0,00.0,30.8,23.2,08.5,0000.0,0003.63,0003.16,0003.03
2022-01-26 04:08:00,,0830.6,5.01,0.00,21.7,21.7,00.0,30.8,23.4,08.5,0000.0,0003.60,0003.15,0003.04
2022-01-26 04:09:00,,0830.6,4.99,0.00,21.9,22.4,00.0,30.8,23.8,08.4,0000.0,0003.56,0003.15,0003.03
2022-01-26 04:10:00,,0830.6,5.00,0.00,22.0,22.9,00.0,30.9,24.0,08.4,0000.0,0003.55,0003.15,0003.05
2022-01-26 04:11:00,,0830.5,5.00,0.00,22.0,22.6,00.0,30.9,23.9,08.4,0000.0,0003.56,0003.16,0003.06
2022-01-26 04:12:00,,0830.6,5.00,0.00,22.0,22.3,00.0,30.9,23.8,08.3,0000.0,0003.56,0003.16,0003.07
2022-01-26 04:13:00,,0830.5,4.99,0.00,22.0,22.0,00.0,30.9,23.7,08.4,0000.0,0003.59,0003.18,0003.10
2022-01-26 04:14:00,,0830.6,5.01,0.00,21.9,21.7,00.0,30.9,23.6,08.5,0000.0,0003.55,0003.19,0003.12
2022-01-26 04:15:00,,0830.6,5.00,0.00,21.9,21.5,00.0,30.9,23.5,08.5,0000.0,0003.64,0003.21,0003.14
2022-01-26 04:16:00,,0830.6,4.99,0.00,21.8,21.3,00.0,30.9,23.4,08.6,0000.0,0003.64,0003.24,0003.17
2022-01-26 04:17:00,,0830.5,5.00,0.00,21.8,21.2,00.0,30.9,23.3,08.7,0000.0,0003.67,0003.26,0003.19
2022-01-26 04:18:00,,0830.5,5.00,0.00,21.7,21.0,00.0,30.8,23.2,08.7,0000.0,0003.70,0003.28,0003.21
2022-01-26 04:19:00,,0830.5,5.00,0.00,21.7,20.9,00.0,30.8,23.2,08.7,0000.0,0003.70,0003.29,0003.23
2022-01-26 04:20:00,,0830.5,5.00,0.00,21.6,20.8,00.0,30.8,23.1,08.7,0000.0,0003.72,0003.30,0003.23
2022-01-26 04:21:00,,0830.4,5.01,0.00,21.6,21.0,00.0,30.8,23.2,08.7,0000.0,0003.74,0003.31,0003.25
2022-01-26 04:22:00,,0830.4,5.00,0.00,21.7,21.8,00.0,30.8,23.5,08.7,0000.0,0003.77,0003.32,0003.26
2022-01-26 04:23:00,,0830.5,5.00,0.00,21.9,22.6,00.0,30.9,23.8,08.6,0000.0,0003.82,0003.34,0003.28
2022-01-26 04:24:00,,0830.4,4.99,0.00,22.0,23.0,00.0,30.9,24.0,08.5,0000.0,0003.85,0003.35,0003.29
2022-01-26 04:25:00,,0830.3,5.01,0.00,22.1,22.7,00.0,30.9,23.9,08.5,0000.0,0003.82,0003.34,0003.29
2022-01-26 04:26:00,,0830.4,5.00,0.00,22.0,22.3,00.0,30.9,23.8,08.5,0000.0,0003.82,0003.34,0003.28
2022-01-26 04:27:00,,0830.4,4.99,0.00,22.0,22.0,00.0,30.9,23.6,08.6,0000.0,0003.84,0003.34,0003.28
2022-01-26 04:28:00,,0830.3,5.01,0.00,21.9,21.7,00.0,30.9,23.5,08.6,0000.0,0004.03,0003.35,0003.28
2022-01-26 04:29:00,,0830.3,5.00,0.00,21.9,21.5,00.0,30.9,23.4,08.6,0000.0,0004.10,0003.36,0003.28
2022-01-26 04:30:00,,0830.3,5.01,0.00,21.8,21.3,00.0,30.9,23.4,08.6,0000.0,0004.17,0003.38,0003.30
2022-01-26 04:31:00,,0830.3,5.00,0.00,21.7,21.2,00.0,30.9,23.3,08.7,0000.0,0004.21,0003.40,0003.32
2022-01-26 04:32:00,,0830.2,5.00,0.00,21.7,21.0,00.0,30.8,23.2,08.7,0000.0,0004.22,0003.42,0003.33
2022-01-26 04:33:00,,0830.2,4.98,0.00,21.6,20.9,00.0,30.8,23.2,08.8,0000.0,0004.23,0003.43,0003.34
2022-01-26 04:34:00,,0830.3,5.00,0.00,21.6,20.8,00.0,30.8,23.1,08.8,0000.0,0004.29,0003.45,0003.36
2022-01-26 04:35:00,,0830.3,5.01,0.00,21.6,21.2,00.0,30.8,23.2,08.9,0000.0,0004.36,0003.47,0003.37
2022-01-26 04:36:00,,0830.3,5.00,0.00,21.7,22.0,00.0,30.8,23.5,08.9,0000.0,0004.42,0003.49,0003.39
2022-01-26 04:37:00,,0830.3,5.01,0.00,21.9,22.7,00.0,30.8,23.8,08.8,0000.0,0005.35,0003.51,0003.42
2022-01-26 04:38:00,,0830.2,4.99,0.00,22.0,22.9,00.0,30.9,23.9,08.8,0000.0,0005.76,0003.52,0003.43
2022-01-26 04:39:00,,0830.2,5.00,0.00,22.0,22.5,00.0,30.9,23.9,08.7,0000.0,0005.59,0003.52,0003.44
2022-01-26 04:40:00,,0830.2,5.00,0.00,22.0,22.2,00.0,30.9,23.8,08.8,0000.0,0005.59,0003.53,0003.46
2022-01-26 04:41:00,,0830.2,5.01,0.00,21.9,21.9,00.0,30.9,23.6,08.8,0000.0,0005.56,0003.54,0003.48
2022-01-26 04:42:00,,0830.1,5.01,0.00,21.9,21.7,00.0,30.9,23.5,08.9,0000.0,0005.68,0003.56,0003.50
2022-01-26 04:43:00,,0830.1,4.98,0.00,21.9,21.5,00.0,30.9,23.4,08.9,0000.0,0005.76,0003.58,0003.52
2022-01-26 04:44:00,,0830.1,5.00,0.00,21.8,21.3,00.0,30.9,23.4,09.0,0000.0,0005.74,0003.59,0003.53
2022-01-26 04:45:00,,0830.1,5.00,0.00,21.7,21.1,00.0,30.9,23.3,09.0,0000.0,0005.73,0003.59,0003.54
2022-01-26 04:46:00,,0830.1,5.00,0.00,21.7,21.0,00.0,30.8,23.2,09.1,0000.0,0005.73,0003.61,0003.57
2022-01-26 04:47:00,,0830.1,5.00,0.00,21.6,20.9,00.0,30.8,23.2,09.2,0000.0,0005.90,0003.65,0003.59
2022-01-26 04:48:00,,0830.1,5.00,0.00,21.6,21.0,00.0,30.8,23.2,09.3,0000.0,0005.06,0003.69,0003.62
2022-01-26 04:49:00,,0830.1,4.99,0.00,21.7,21.7,00.0,30.8,23.4,09.2,0000.0,0004.67,0003.71,0003.65
2022-01-26 04:50:00,,0830.1,5.01,0.00,21.9,22.4,00.0,30.9,23.7,09.1,0000.0,0004.73,0003.75,0003.69
2022-01-26 04:51:00,,0830.1,5.01,0.00,22.0,22.9,00.0,30.9,24.0,09.0,0000.0,0004.78,0003.78,0003.72
2022-01-26 04:52:00,,0830.0,5.00,0.00,22.1,22.7,00.0,30.9,24.0,09.0,0000.0,0004.87,0003.82,0003.76
2022-01-26 04:53:00,,0830.1,4.99,0.00,22.0,22.3,00.0,30.9,23.8,09.0,0000.0,0004.95,0003.86,0003.78
2022-01-26 04:54:00,,0830.0,4.99,0.00,22.0,21.9,00.0,30.9,23.7,09.0,0000.0,0005.03,0003.90,0003.81
2022-01-26 04:55:00,,0830.1,5.00,0.00,22.0,21.7,00.0,30.9,23.6,08.9,0000.0,0005.08,0003.93,0003.84
2022-01-26 04:56:00,,0830.0,5.00,0.00,21.9,21.5,00.0,30.9,23.5,08.9,0000.0,0005.12,0003.96,0003.87
2022-01-26 04:57:00,,0830.0,5.01,0.00,21.8,21.3,00.0,30.9,23.4,08.9,0000.0,0005.11,0003.97,0003.89
2022-01-26 04:58:00,,0830.0,5.00,0.00,21.8,21.2,00.0,30.9,23.4,09.0,0000.0,0005.01,0003.96,0003.91
2022-01-26 04:59:00,,0830.0,4.98,0.00,21.7,21.0,00.0,30.9,23.3,09.0,0000.0,0005.02,0003.97,0003.91
